Location: Brompton
(51.4000°N, 0.5333°E)
Time: 08:10:57
(UTC+00:00)

USA 306 - Pass Details

Date: 11 May 2021
Orbit: 565 x 575 km, 54.0° (Epoch: 11 May)

Event Time Altitude Azimuth Distance (km) Brightness Sun altitude
Rises 20:39:31 0° 291° (WNW) 2,772 7.8 -8.5°
Reaches altitude 10° 20:41:46 10° 290° (WNW) 1,874 6.7 -8.8°
Maximum altitude 20:46:02 81° 204° (SSW) 583 2.9 -9.3°
Enters shadow 20:49:59 12° 117° (ESE) 1,748 4.8 -9.7°
